Regional Weather Roundup
Issued by NWS

Home | Current Version | Previous Version | Graphics & Text | Print | Product List | Glossary On
Versions: 1 2 3 4 5 6 7 8 9 10 11 12 13 14 15 16 17 18 19 20 21 22 23 24 25 26 27 28 29 30 31 32 33 34 35 36 37 38 39
000
ASUS43 KDMX 212307
RWRIA

WEATHER ROUNDUP FOR IOWA
NATIONAL WEATHER SERVICE DES MOINES IA
600 PM CDT TUE OCT 21 2014

NOTE: "FAIR" INDICATES FEW OR NO CLOUDS BELOW 12,000 FEET WITH NO
SIGNIFICANT WEATHER AND/OR OBSTRUCTIONS TO VISIBILITY.

* - THESE STATIONS ARE NOT NWS STATIONS...THUS NOT UNDER NWS
QUALITY CONTROL.  THEY ALSO DO NOT REPORT WEATHER SUCH
AS PRECIPITATION OR FOG.

IAZ001>003-012>014-020>022-031>034-043>046-220000-
   NORTHWEST IOWA

CITY           SKY/WX    TMP DP  RH WIND       PRES   REMARKS
CARROLL *      CLEAR     64  43  45 SE8       30.07F
CHEROKEE *     CLEAR     68  43  40 SE9       30.04S
DENISON *      CLEAR     68  41  37 SE10      30.03S
LE MARS *      CLEAR     72  43  35 S10       30.01S
ORANGE CITY *  CLEAR     73  37  27 S6        30.02S
SHELDON *      CLEAR     68  43  40 SE12      30.01S
SIOUX CITY     CLEAR     72  42  34 SE9       30.01S
SPENCER        CLEAR     64  43  46 SE12      30.06S
STORM LAKE *   CLEAR     64  41  42 SE12      30.07S
$$

IAZ055>058-069>071-079>083-090>094-220000-
   SOUTHWEST IOWA

CITY           SKY/WX    TMP DP  RH WIND       PRES   REMARKS
ATLANTIC *     CLEAR     68  41  37 SE6       30.06S
AUDUBON *      CLEAR     64  37  36 E5        30.08S
CLARINDA *     CLEAR     70  41  35 SE5       30.07F
COUNCIL BLFS * CLEAR     68  43  40 SE7       30.03S
CRESTON *      CLEAR     66  43  42 SE7       30.09S
HARLAN  *      CLEAR     70  39  32 SE7       30.09S
LAMONI         CLEAR     65  47  52 E7        30.10S
RED OAK *      CLEAR     70  39  32 SE7       30.06R
SHENANDOAH *   CLEAR     70  41  35 SE7       30.06R
$$

IAZ047>049-059>061-072>074-084-220000-
   CENTRAL IOWA

CITY           SKY/WX    TMP DP  RH WIND       PRES   REMARKS
AMES           CLEAR     60  41  49 SE8       30.12S
ANKENY *       CLEAR     61  45  55 SE7       30.12S
CHARITON *     CLEAR     63  45  51 SE7       30.12S
DES MOINES     CLEAR     63  43  48 E8        30.12S
GRINNELL*      CLEAR     57  41  54 E6        30.16R
KNOXVILLE *    CLEAR     61  43  51 SE6       30.12S
MARSHALLTOWN   CLEAR     57  41  55 SE8       30.14R
PELLA *        CLEAR     61  43  51 E3        30.15S
PERRY *          N/A     63  45  51 E9        30.10S
$$

IAZ004>006-015-016-023>025-035-036-220000-
   NORTH CENTRAL IOWA

CITY           SKY/WX    TMP DP  RH WIND       PRES   REMARKS
ALGONA *       CLEAR     61  41  48 SE9       30.11R
CLARION *      CLEAR     61  39  44 SE9       30.12S
ESTHERVILLE    CLEAR     62  42  47 SE14      30.08S
FORT DODGE *   CLEAR     61  43  51 SE10      30.11S
MASON CITY     CLEAR     57  41  55 SE8       30.15R
FOREST CITY *  CLEAR     55  43  62 SE10      30.13S
IOWA FALLS *     N/A     57  39  51 SE6       30.15S
$$

IAZ007>011-017>019-026>030-037>042-050>054-066-220000-
   NORTHEAST IOWA

CITY           SKY/WX    TMP DP  RH WIND       PRES   REMARKS
CEDAR RAPIDS   CLEAR     55  39  54 E7        30.16S
CHARLES CITY * CLEAR     55  39  54 SE6       30.17R
CLINTON *      CLEAR     52  37  58 NE6       30.22R
DECORAH *      CLEAR     54  37  54 E6        30.18R
DUBUQUE        CLEAR     50  39  66 E8        30.20R
MONTICELLO *   CLEAR     54  37  54 E6        30.18S
OELWEIN *      CLEAR     55  39  54 E8        30.18R
WATERLOO       CLEAR     55  39  54 SE8       30.16R
$$

IAZ064-065-067-068-078-220000-
   EAST CENTRAL IOWA

CITY           SKY/WX    TMP DP  RH WIND       PRES   REMARKS
DAVENPORT      CLEAR     53  36  52 E8        30.19R
IOWA CITY      CLEAR     57  39  51 E8        30.18R
MT. PLEASANT * CLEAR     57  39  51 E6        30.16S
MUSCATINE *    CLEAR     55  39  54 NE7       30.18R
QUAD CITIES    CLEAR     53  38  56 E10       30.18R
$$

IAZ062-063-075>077-085>089-095>099-220000-
   SOUTHEAST IOWA

CITY           SKY/WX    TMP DP  RH WIND       PRES   REMARKS
BURLINGTON     CLEAR     57  40  52 E7        30.16R
FAIRFIELD *    CLEAR     55  41  58 E7        30.16R
FORT MADISON * CLEAR     59  43  55 E3        30.16S
KEOKUK *       CLEAR     59  41  51 E6        30.14S
OSKALOOSA *      N/A     59  41  51 E6        30.15S
CENTERVILLE *  CLEAR     59  46  63 E6        30.15S
WASHINGTON *   CLEAR     57  41  54 E8        30.16S
$$

ABBREVIATIONS USED IN REMARKS
   TC - TEMPERATURES IN CELSIUS
  WCI - WIND CHILL INDEX
   HX - HEAT INDEX
  VSB - VISIBILITY
$$




USA.gov is the U.S. government's official web portal to all federal, state and local government web resources and services.